Date String (YYYY-MM-DD hh:mm:ss) UTC,Instrument flags,absolute air pressure of the measurement (hPa),sample flow rate (lpm),inlet stack bypass flow (lpm),air temperature of the measurement (°C),ambient temperature measured by the external sensor (°C),aerosol sample conditioner tube jacket temperature (°C),OPC LED temperature (°C),internal box temperature (°C),relative humidity of the measurement (%),span deviation,mass concentration of particles derived from Lorenz-Mie calculation of OPC scattering (μg/m³),mass concentration of particles derived from Lorenz-Mie calculation of OPC scattering (μg/m³),mass concentration of particles derived from Lorenz-Mie calculation of OPC scattering (μg/m³)
DateTimeUTC,F1_M11,P_M11,Q1_M11,Q2_M11,T1_M11,T2_M11,T3_M11,T4_M11,T5_M11,U1_M11,ZSPAN_M11,X0_M11,X2_M11,X1_M11
2024-05-14 08:00:00,SystemResetWarning,0825.6,5.00,000.00,025.1,024.5,000.0,033.1,026.8,019.4,0000.0,0004.20,0002.84,0002.36
2024-05-14 08:01:00,SystemResetWarning,0825.5,5.00,000.00,025.1,024.6,000.0,033.2,026.9,019.5,0000.0,0004.09,0002.78,0002.33
2024-05-14 08:02:00,SystemResetWarning,0825.5,5.00,000.00,025.1,024.6,000.0,033.2,026.9,018.9,0000.0,0004.09,0002.77,0002.31
2024-05-14 08:03:00,SystemResetWarning,0825.5,4.99,000.00,025.2,024.7,000.0,033.2,027.0,019.0,0000.0,0003.99,0002.73,0002.29
2024-05-14 08:04:00,SystemResetWarning,0825.5,4.99,000.00,025.2,024.7,000.0,033.2,027.0,019.4,0000.0,0003.96,0002.70,0002.26
2024-05-14 08:05:00,SystemResetWarning,0825.5,5.01,000.00,025.3,024.8,000.0,033.3,027.0,019.2,0000.0,0003.86,0002.65,0002.24
2024-05-14 08:06:00,SystemResetWarning,0825.5,5.01,000.00,025.3,024.8,000.0,033.3,027.1,019.2,0000.0,0003.66,0002.61,0002.21
2024-05-14 08:07:00,SystemResetWarning,0825.5,5.00,000.00,025.3,024.9,000.0,033.3,027.1,019.0,0000.0,0003.37,0002.55,0002.21
2024-05-14 08:08:00,SystemResetWarning,0825.5,4.99,000.00,025.4,024.9,000.0,033.3,027.1,019.1,0000.0,0003.55,0002.53,0002.19
2024-05-14 08:09:00,SystemResetWarning,0825.5,4.99,000.00,025.4,024.9,000.0,033.4,027.2,019.0,0000.0,0004.03,0002.49,0002.17
2024-05-14 08:10:00,SystemResetWarning,0825.5,5.00,000.00,025.4,025.0,000.0,033.4,027.2,019.0,0000.0,0003.80,0002.42,0002.16
2024-05-14 08:11:00,SystemResetWarning,0825.4,5.00,000.00,025.5,025.0,000.0,033.4,027.2,018.9,0000.0,0003.77,0002.40,0002.16
2024-05-14 08:12:00,SystemResetWarning,0825.5,5.00,000.00,025.5,025.0,000.0,033.5,027.3,018.9,0000.0,0003.87,0002.45,0002.19
2024-05-14 08:13:00,SystemResetWarning,0825.5,4.99,000.00,025.4,023.8,000.0,033.6,026.6,019.0,0000.0,0003.85,0002.43,0002.18
2024-05-14 08:14:00,SystemResetWarning,0825.4,5.01,000.00,025.0,022.0,000.0,033.6,025.7,019.7,0000.0,0003.86,0002.43,0002.17
2024-05-14 08:15:00,SystemResetWarning,0825.4,5.02,000.00,024.8,022.0,000.0,033.6,025.5,019.9,0000.0,0003.94,0002.47,0002.18
2024-05-14 08:16:00,SystemResetWarning,0825.4,5.00,000.00,024.7,022.4,000.0,033.4,025.7,020.2,0000.0,0004.02,0002.51,0002.19
2024-05-14 08:17:00,SystemResetWarning,0825.4,4.99,000.00,024.7,022.7,000.0,033.3,026.0,020.2,0000.0,0004.13,0002.56,0002.21
2024-05-14 08:18:00,SystemResetWarning,0825.4,5.00,000.00,024.7,023.0,000.0,033.2,026.2,019.6,0000.0,0004.23,0002.62,0002.22
2024-05-14 08:19:00,SystemResetWarning,0825.5,5.01,000.00,024.7,023.3,000.0,033.2,026.3,019.7,0000.0,0004.09,0002.61,0002.21
2024-05-14 08:20:00,SystemResetWarning,0825.5,4.99,000.00,024.8,023.6,000.0,033.1,026.4,019.6,0000.0,0003.49,0002.63,0002.21
2024-05-14 08:21:00,SystemResetWarning,0825.4,5.00,000.00,024.8,023.8,000.0,033.1,026.5,019.5,0000.0,0003.63,0002.68,0002.22
2024-05-14 08:22:00,SystemResetWarning,0825.4,5.00,000.00,024.9,023.9,000.0,033.1,026.6,019.1,0000.0,0003.64,0002.68,0002.21
2024-05-14 08:23:00,SystemResetWarning,0825.4,5.01,000.00,024.9,024.1,000.0,033.1,026.7,019.1,0000.0,0003.57,0002.66,0002.19
2024-05-14 08:24:00,SystemResetWarning,0825.4,5.01,000.00,025.0,024.2,000.0,033.1,026.7,018.9,0000.0,0004.19,0002.70,0002.19
2024-05-14 08:25:00,SystemResetWarning,0825.4,4.99,000.00,025.0,024.3,000.0,033.1,026.8,018.7,0000.0,0004.74,0002.75,0002.19
2024-05-14 08:26:00,SystemResetWarning,0825.5,4.99,000.00,025.1,024.4,000.0,033.1,026.8,018.6,0000.0,0004.70,0002.73,0002.20
2024-05-14 08:27:00,SystemResetWarning,0825.5,5.00,000.00,025.1,024.5,000.0,033.2,026.9,017.9,0000.0,0004.67,0002.71,0002.18
2024-05-14 08:28:00,SystemResetWarning,0825.6,5.01,000.00,025.1,024.6,000.0,033.2,026.9,017.8,0000.0,0004.82,0002.69,0002.16
2024-05-14 08:29:00,SystemResetWarning,0825.5,5.01,000.00,025.2,024.6,000.0,033.2,026.9,017.6,0000.0,0004.75,0002.62,0002.15
2024-05-14 08:30:00,SystemResetWarning,0825.5,4.99,000.00,025.2,024.7,000.0,033.2,027.0,017.3,0000.0,0004.79,0002.65,0002.15
2024-05-14 08:31:00,SystemResetWarning,0825.5,4.99,000.00,025.3,024.8,000.0,033.3,027.0,017.7,0000.0,0004.80,0002.66,0002.15
2024-05-14 08:32:00,SystemResetWarning,0825.5,5.00,000.00,025.3,024.8,000.0,033.3,027.1,017.6,0000.0,0004.73,0002.63,0002.15
2024-05-14 08:33:00,SystemResetWarning,0825.5,5.01,000.00,025.3,024.9,000.0,033.3,027.1,017.5,0000.0,0004.75,0002.64,0002.15
2024-05-14 08:34:00,SystemResetWarning,0825.4,5.01,000.00,025.4,024.9,000.0,033.4,027.2,017.5,0000.0,0004.75,0002.60,0002.14
2024-05-14 08:35:00,SystemResetWarning,0825.4,5.00,000.00,025.4,024.9,000.0,033.4,027.2,017.8,0000.0,0004.35,0002.57,0002.14
2024-05-14 08:36:00,SystemResetWarning,0825.5,5.00,000.00,025.4,025.0,000.0,033.4,027.2,017.3,0000.0,0003.72,0002.56,0002.14
2024-05-14 08:37:00,SystemResetWarning,0825.4,5.00,000.00,025.5,025.0,000.0,033.5,027.3,017.2,0000.0,0003.77,0002.57,0002.13
2024-05-14 08:38:00,SystemResetWarning,0825.4,4.99,000.00,025.4,024.1,000.0,033.5,026.7,017.3,0000.0,0003.93,0002.57,0002.13
2024-05-14 08:39:00,SystemResetWarning,0825.3,5.01,000.00,025.0,022.2,000.0,033.6,025.8,017.6,0000.0,0004.11,0002.54,0002.13
2024-05-14 08:40:00,SystemResetWarning,0825.3,5.02,000.00,024.8,022.2,000.0,033.6,025.6,017.9,0000.0,0004.18,0002.57,0002.12
2024-05-14 08:41:00,SystemResetWarning,0825.4,4.99,000.00,024.7,022.5,000.0,033.4,025.8,018.1,0000.0,0004.14,0002.54,0002.12
2024-05-14 08:42:00,SystemResetWarning,0825.4,5.00,000.00,024.7,022.8,000.0,033.3,026.0,018.2,0000.0,0004.14,0002.53,0002.12
2024-05-14 08:43:00,SystemResetWarning,0825.4,5.00,000.00,024.7,023.1,000.0,033.2,026.2,018.1,0000.0,0004.22,0002.56,0002.13
2024-05-14 08:44:00,SystemResetWarning,0825.4,5.01,000.00,024.8,023.4,000.0,033.2,026.4,018.2,0000.0,0004.20,0002.55,0002.13
2024-05-14 08:45:00,SystemResetWarning,0825.4,4.99,000.00,024.8,023.6,000.0,033.2,026.5,018.2,0000.0,0004.16,0002.58,0002.14
2024-05-14 08:46:00,SystemResetWarning,0825.4,5.00,000.00,024.9,023.8,000.0,033.1,026.6,018.9,0000.0,0004.12,0002.57,0002.14
2024-05-14 08:47:00,SystemResetWarning,0825.4,5.00,000.00,024.9,024.0,000.0,033.1,026.6,019.7,0000.0,0004.12,0002.59,0002.14
2024-05-14 08:48:00,SystemResetWarning,0825.4,5.00,000.00,025.0,024.2,000.0,033.1,026.7,019.4,0000.0,0004.04,0002.56,0002.15
2024-05-14 08:49:00,SystemResetWarning,0825.5,4.99,000.00,025.0,024.3,000.0,033.2,026.7,020.0,0000.0,0003.98,0002.58,0002.15
2024-05-14 08:50:00,SystemResetWarning,0825.5,5.00,000.00,025.0,024.4,000.0,033.2,026.8,019.8,0000.0,0003.62,0002.62,0002.17
2024-05-14 08:51:00,SystemResetWarning,0825.5,5.00,000.00,025.1,024.5,000.0,033.2,026.9,019.6,0000.0,0003.60,0002.66,0002.20
2024-05-14 08:52:00,SystemResetWarning,0825.5,5.00,000.00,025.1,024.6,000.0,033.2,026.9,019.5,0000.0,0003.64,0002.71,0002.22
2024-05-14 08:53:00,SystemResetWarning,0825.5,5.00,000.00,025.2,024.6,000.0,033.2,027.0,019.3,0000.0,0003.59,0002.70,0002.22
2024-05-14 08:54:00,SystemResetWarning,0825.6,4.98,000.00,025.2,024.7,000.0,033.3,027.1,019.0,0000.0,0003.46,0002.66,0002.22
2024-05-14 08:55:00,SystemResetWarning,0825.6,4.99,000.00,025.3,024.8,000.0,033.3,027.1,018.9,0000.0,0003.53,0002.67,0002.22
2024-05-14 08:56:00,SystemResetWarning,0825.6,5.01,000.00,025.3,024.9,000.0,033.3,027.1,018.9,0000.0,0003.66,0002.69,0002.24
2024-05-14 08:57:00,SystemResetWarning,0825.6,5.01,000.00,025.4,024.9,000.0,033.4,027.2,018.9,0000.0,0003.72,0002.72,0002.25
2024-05-14 08:58:00,SystemResetWarning,0825.6,5.00,000.00,025.4,025.0,000.0,033.4,027.2,018.8,0000.0,0003.73,0002.71,0002.26
2024-05-14 08:59:00,SystemResetWarning,0825.6,5.00,000.00,025.5,025.0,000.0,033.4,027.3,018.7,0000.0,0003.95,0002.79,0002.28
